TimeMST,TemperatureF,Dew PointF,Humidity,Sea Level PressureIn,VisibilityMPH,Wind Direction,Wind SpeedMPH,Gust SpeedMPH,PrecipitationIn,Events,Conditions,WindDirDegrees,DateUTC
12:15 AM,10.2,2.7,72,30.10,10.0,Calm,Calm,-,N/A,,Clear,0,2013-02-19 07:15:00
12:35 AM,12.2,2.8,66,30.10,10.0,Calm,Calm,-,N/A,,Clear,0,2013-02-19 07:35:00
12:55 AM,9.7,3.0,74,30.10,10.0,Calm,Calm,-,N/A,,Clear,0,2013-02-19 07:55:00
1:15 AM,10.0,3.0,73,30.09,10.0,Calm,Calm,-,N/A,,Clear,0,2013-02-19 08:15:00
1:35 AM,6.6,1.0,78,30.08,10.0,Calm,Calm,-,N/A,,Clear,0,2013-02-19 08:35:00
1:55 AM,10.6,3.4,73,30.08,10.0,Calm,Calm,-,N/A,,Clear,0,2013-02-19 08:55:00
2:15 AM,10.0,2.1,70,30.08,10.0,Calm,Calm,-,N/A,,Clear,0,2013-02-19 09:15:00
2:35 AM,9.5,4.3,79,30.07,10.0,Calm,Calm,-,N/A,,Clear,0,2013-02-19 09:35:00
2:55 AM,7.3,1.0,75,30.07,10.0,Calm,Calm,-,N/A,,Clear,0,2013-02-19 09:55:00
3:15 AM,7.7,0.7,73,30.05,10.0,Calm,Calm,-,N/A,,Clear,0,2013-02-19 10:15:00
3:35 AM,1.6,-4.2,77,30.06,10.0,Calm,Calm,-,N/A,,Clear,0,2013-02-19 10:35:00
3:55 AM,7.5,-0.4,70,30.06,10.0,Calm,Calm,-,N/A,,Clear,0,2013-02-19 10:55:00
4:15 AM,5.5,2.1,86,30.06,10.0,Calm,Calm,-,N/A,,Clear,0,2013-02-19 11:15:00
4:35 AM,3.4,-1.1,82,30.06,10.0,Calm,Calm,-,N/A,,Clear,0,2013-02-19 11:35:00
4:55 AM,5.9,0.1,77,30.06,10.0,Calm,Calm,-,N/A,,Clear,0,2013-02-19 11:55:00
5:35 AM,7.9,1.4,75,30.05,10.0,Calm,Calm,-,N/A,,Clear,0,2013-02-19 12:35:00
5:55 AM,5.0,-2.4,72,30.05,10.0,NW,3.5,-,N/A,,Clear,310,2013-02-19 12:55:00
6:15 AM,5.4,-0.6,76,30.05,10.0,Calm,Calm,-,N/A,,Clear,0,2013-02-19 13:15:00
6:35 AM,4.1,-2.2,75,30.05,10.0,Calm,Calm,-,N/A,,Clear,0,2013-02-19 13:35:00
6:55 AM,5.0,-2.0,73,30.05,10.0,Calm,Calm,-,N/A,,Clear,0,2013-02-19 13:55:00
7:15 AM,4.5,1.4,87,30.05,10.0,Calm,Calm,-,N/A,,Clear,0,2013-02-19 14:15:00
7:35 AM,4.3,-0.4,81,30.05,10.0,Calm,Calm,-,N/A,,Clear,0,2013-02-19 14:35:00
7:55 AM,9.7,-0.2,64,30.05,10.0,NNE,3.5,-,N/A,,Clear,30,2013-02-19 14:55:00
8:15 AM,13.8,1.8,59,30.05,10.0,Calm,Calm,-,N/A,,Clear,0,2013-02-19 15:15:00
8:35 AM,13.1,-0.2,55,30.05,10.0,Calm,Calm,-,N/A,,Clear,0,2013-02-19 15:35:00
8:55 AM,19.6,0.1,43,30.04,10.0,Calm,Calm,-,N/A,,Clear,0,2013-02-19 15:55:00
9:15 AM,22.6,0.3,38,30.04,10.0,Calm,Calm,-,N/A,,Clear,0,2013-02-19 16:15:00
9:35 AM,24.8,-0.0,34,30.03,10.0,Calm,Calm,-,N/A,,Clear,0,2013-02-19 16:35:00
9:55 AM,27.1,-0.8,30,30.02,10.0,Calm,Calm,-,N/A,,Clear,0,2013-02-19 16:55:00
10:15 AM,29.5,-0.2,28,30.02,10.0,Calm,Calm,-,N/A,,Clear,0,2013-02-19 17:15:00
10:35 AM,31.5,1.8,28,30.01,10.0,Calm,Calm,-,N/A,,Clear,0,2013-02-19 17:35:00
10:55 AM,34.5,-6.7,17,30.00,10.0,Calm,Calm,-,N/A,,Clear,0,2013-02-19 17:55:00
11:15 AM,35.8,-10.7,13,29.99,10.0,Calm,Calm,-,N/A,,Clear,0,2013-02-19 18:15:00
11:35 AM,37.2,-6.9,15,29.97,10.0,Calm,Calm,-,N/A,,Clear,0,2013-02-19 18:35:00
11:55 AM,36.1,-4.9,17,29.97,10.0,Calm,Calm,-,N/A,,Clear,0,2013-02-19 18:55:00
12:15 PM,37.4,-1.1,20,29.94,10.0,Calm,Calm,-,N/A,,Clear,0,2013-02-19 19:15:00
12:35 PM,40.6,-1.5,17,29.92,10.0,South,3.5,-,N/A,,Clear,180,2013-02-19 19:35:00
12:55 PM,41.0,-1.7,17,29.90,10.0,South,9.2,-,N/A,,Clear,190,2013-02-19 19:55:00
1:15 PM,41.4,-0.2,18,29.89,10.0,South,9.2,-,N/A,,Clear,190,2013-02-19 20:15:00
1:35 PM,41.2,-2.6,16,29.88,10.0,SSW,3.5,-,N/A,,Clear,210,2013-02-19 20:35:00
1:55 PM,41.0,0.7,19,29.87,10.0,Calm,Calm,-,N/A,,Clear,0,2013-02-19 20:55:00
2:15 PM,39.9,0.5,19,29.86,10.0,West,3.5,-,N/A,,Clear,280,2013-02-19 21:15:00
2:35 PM,41.2,-0.0,18,29.85,10.0,Calm,Calm,-,N/A,,Clear,0,2013-02-19 21:35:00
2:55 PM,41.0,-0.0,18,29.85,10.0,Calm,Calm,-,N/A,,Clear,0,2013-02-19 21:55:00
3:15 PM,41.0,1.8,19,29.84,10.0,Calm,Calm,-,N/A,,Clear,0,2013-02-19 22:15:00
3:35 PM,41.0,0.9,19,29.83,10.0,Calm,Calm,-,N/A,,Clear,0,2013-02-19 22:35:00
3:55 PM,40.6,3.2,21,29.83,10.0,Calm,Calm,-,N/A,,Clear,0,2013-02-19 22:55:00
4:15 PM,40.5,3.9,22,29.82,10.0,Calm,Calm,-,N/A,,Clear,0,2013-02-19 23:15:00
5:35 PM,34.5,8.8,34,29.80,10.0,NNE,3.5,-,N/A,,Clear,30,2013-02-20 00:35:00
5:55 PM,32.4,10.4,40,29.79,10.0,Calm,Calm,-,N/A,,Scattered Clouds,0,2013-02-20 00:55:00
6:15 PM,31.1,10.8,43,29.79,10.0,Calm,Calm,-,N/A,,Mostly Cloudy,0,2013-02-20 01:15:00
6:35 PM,30.7,10.8,43,29.78,10.0,Calm,Calm,-,N/A,,Overcast,0,2013-02-20 01:35:00
6:55 PM,30.6,10.2,43,29.78,10.0,Calm,Calm,-,N/A,,Mostly Cloudy,0,2013-02-20 01:55:00
7:15 PM,28.0,9.5,46,29.78,10.0,Calm,Calm,-,N/A,,Clear,0,2013-02-20 02:15:00
7:35 PM,26.8,9.0,47,29.78,10.0,Calm,Calm,-,N/A,,Clear,0,2013-02-20 02:35:00
7:55 PM,25.0,7.5,48,29.77,10.0,Calm,Calm,-,N/A,,Scattered Clouds,0,2013-02-20 02:55:00
8:15 PM,24.8,6.6,46,29.77,10.0,Calm,Calm,-,N/A,,Scattered Clouds,0,2013-02-20 03:15:00
8:35 PM,25.0,8.1,49,29.77,10.0,NE,3.5,-,N/A,,Scattered Clouds,50,2013-02-20 03:35:00
8:55 PM,24.6,10.2,54,29.76,10.0,NNE,3.5,-,N/A,,Mostly Cloudy,30,2013-02-20 03:55:00
9:15 PM,26.1,7.5,46,29.76,10.0,Calm,Calm,-,N/A,,Scattered Clouds,0,2013-02-20 04:15:00
9:35 PM,23.5,9.1,54,29.76,10.0,Calm,Calm,-,N/A,,Mostly Cloudy,0,2013-02-20 04:35:00
9:55 PM,23.0,9.5,56,29.76,10.0,East,3.5,-,N/A,,Overcast,80,2013-02-20 04:55:00
10:15 PM,25.5,9.9,52,29.75,10.0,Calm,Calm,-,N/A,,Mostly Cloudy,0,2013-02-20 05:15:00
10:35 PM,23.7,8.8,53,29.75,10.0,Calm,Calm,-,N/A,,Scattered Clouds,0,2013-02-20 05:35:00
10:55 PM,22.5,7.3,52,29.75,10.0,Calm,Calm,-,N/A,,Clear,0,2013-02-20 05:55:00
11:15 PM,20.3,7.5,58,29.75,10.0,Calm,Calm,-,N/A,,Clear,0,2013-02-20 06:15:00
11:35 PM,23.7,10.2,56,29.75,10.0,Calm,Calm,-,N/A,,Scattered Clouds,0,2013-02-20 06:35:00
11:55 PM,21.4,8.1,57,29.75,10.0,Calm,Calm,-,N/A,,Scattered Clouds,0,2013-02-20 06:55:00